STARLINK-3085 (49156 NORAD) Tracking and Keplerian Element Data

This shows tracking and keplerian element data for the satellite.

Feedback or suggestion? Click here.




ElementValue
Catalog49156
NameSTARLINK-3085
Epoch Orbit804
Epoch Day300.83334491
Epoch Year2021
RAAN3.978
Inclination69.9999
Eccentricity0.0003912
Argument of Perigee292.9758
Mean Anonmoly73.5555
Mean Motion15.69779134
Decay Rate-0.00079839
L11 49156U 21082AC 21300.83334491 -.00079839 00000-0 -67247-3 0 9996
L22 49156 69.9999 3.9780 0003912 292.9758 73.5555 15.69779134 8046

Live tracking and technical data element details for STARLINK-3085 (NORAD 49156). STARLINK-3085 can be tracked NOW for your location showing map with azimuth and elevation plus other details from your city location.

Track the satellite on the map from your city or location and see movement details for azimuth, elevation, latitude, longitude, range, height, and movement on the map or in text.







IsCatalogInMostPopularTable: catalog: 49156, numindb: 6
Update: records affected: 1



GetName: 49156 STARLINK-3085

Hit Count: updated at: Thu, 28 Oct 2021 12:15:59 GMT